356  
ASUS46 KPDT 240310  
RWRPDT  
PENDLETON REGIONAL WEATHER ROUNDUP  
NATIONAL WEATHER SERVICE PENDLETON OREGON  
800 PM PDT SAT JUN 23 2018  
 
NOTE: FAIR INDICATES FEW OR NO CLOUDS BELOW 12,000 FEET WITH NO  
SIGNIFICANT WEATHER AND/OR S TO VISIBILITY
.  
 
# INDICATES UNOFFICIAL STATION AND DATA  
 
WAZ520-240410-  
EAST SLOPES OF WASHINGTON CASCADES  
 
CITY SKY/WX TMP DP RH WIND PRES REMARKS
 
#BULLFROG N/A 63 48 58 W9 N/A  
#CLE ELUM HS N/A 62 48 60 W7 30.03S  
#EASTON DOT N/A N/A N/A N/A N3 N/A  
#ELK HTS DOT N/A 63 63 100 SW6 N/A  
#GLENWOOD N/A 69 53 57 S5 29.97R  
#NELSON 3SW N/A 59 47 64 CALM 30.23S  
#NILE N/A 66 49 54 S1 29.38S  
#RONALD 2NW N/A 0 N/A N/A CALM 29.98S  
#TROUT LAKE 1NE N/A 68 52 57 W7 30.00R  
#TROUT LAKE 1E N/A 70 51 51 CALM 30.09R  

 
 
WAZ521-240410-  
SIMCOE HIGHLANDS  
 
CITY SKY/WX TMP DP RH WIND PRES REMARKS
 
#BICKLETON HS N/A 71 50 47 CALM 29.72S  
#SATUS PASS DOT N/A 67 40 37 NW13G26 N/A  
#CENTERVILLE 1SWN/A 69 52 55 W12 29.94S  
#GOLDENDALE 1NE N/A 78 17 10 SW3 N/A  
#GOLDENDALE 4W N/A 71 23 16 W9 30.06S  
#GOODNOE HILLS N/A 75 52 45 W12 29.93S  
#LYLE 6NE N/A 68 54 61 SW9 30.02R  
#PITT 4SE N/A 65 52 63 SW8 30.03S  

 
 
WAZ026-240410-  
KITTITAS VALLEY  
 
CITY SKY/WX TMP DP RH WIND PRES REMARKS
 
ELLENSBURG AP CLEAR 68 49 51 NW28G38 30.02R  
#ELLENSBURG CWU N/A 68 49 51 N15 29.91R  
#ELLENSBURG 1E N/A 68 50 53 NW5 30.03R  
#KITTITAS 3S N/A 69 51 53 W9 29.94R  
#THORP 6N N/A 70 55 59 CALM 29.94S  

 
 
WAZ027-240410-  
YAKIMA VALLEY  
 
CITY SKY/WX TMP DP RH WIND PRES REMARKS
 
SUNNYSIDE AP CLEAR 35 16 45 E3 29.95S  
YAKIMA AIRPORT CLEAR 77 47 35 N16G29 29.97S  
YAKIMA-VAGABOND N/A 77 42 29 N13 29.98R  
#DONALD 2NE N/A 79 18 10 N6 28.82R  
#GRANDVIEW N/A 80 45 29 CALM 29.94S  
#MABTON N/A 83 52 34 CALM 29.94S  
#NACHES 2SW N/A 70 49 47 W14 30.03R  
#OUTLOOK DOT N/A 82 46 28 CALM 29.92S  
#PARKER DOT N/A 79 44 29 S12 29.97R  
#TERRACE HTS N/A 81 48 32 N7 29.90R  
#TOPPENISH N/A 79 49 35 CALM 29.84R  
#I82 S UMTANUM RN/A 75 46 36 N12 N/A  
#UNION GAP DOT N/A 78 44 30 N12 29.99S  
#W YAKIMA N/A 73 49 43 N6 29.93S  
#WHITE SWAN 5E N/A 79 53 41 CALM 29.93S  
#WILEY CITY 3W N/A 74 44 34 CALM 29.95S  
#ZILLAH DOT N/A 83 44 25 NW9 N/A  

 
 
WAZ028-240410-  
LOWER COLUMBIA BASIN...WASHINGTON  
 
CITY SKY/WX TMP DP RH WIND PRES REMARKS
 
PASCO CLEAR 83 47 28 S8 29.95S  
PROSSER AWOS N/A 81 50 34 S10 29.98S  
RICHLAND AWOS CLEAR 83 48 30 S6 29.94S  
#BASIN CITY 5SW N/A 77 55 47 SE1 29.90S  
#BENTON CITY N/A 79 48 34 S1 29.82F  
#CONNELL 5N N/A 79 51 38 SW3 29.93S  
#CONNELL 5NW N/A 76 57 52 SW1 29.88S  
#ELTOPIA 6NW N/A 76 57 52 CALM 28.94S  
#KAHLOTUS N/A 78 47 34 W7 29.93S  
#KENNEWICK 3S N/A 80 50 35 S2 29.93S  
#PROSSER DOT N/A 82 45 27 S7 29.97S  
#SAGEMOOR 2W N/A 76 59 56 SE1 29.78F  
#TOUCHET 2S N/A 80 67 65 CALM 29.91F  

 
 
WAZ029-240410-  
FOOTHILLS OF THE BLUES...WASHINGTON  
 
CITY SKY/WX TMP DP RH WIND PRES REMARKS
 
WALLA WALLA AP CLEAR 79 43 28 SE8 29.99F  
#CLYDE 6NW N/A 78 48 35 S6 29.92S  
#DELANEY DOT N/A 79 43 28 SE6 N/A  
#LOWDEN 2SE N/A 81 50 34 SE1 29.93S  
#PRESCOTT N/A 77 57 50 CALM 29.92S  
#WHITMAN COLLEGEN/A 77 49 37 CALM 30.00S  
#WAITSBURG 6SSE N/A 68 51 55 CALM 29.81S  
#WAITSBURG 8N N/A 0 N/A N/A CALM 29.79S  
#WALLA WALLA 5E N/A 78 56 47 SE5 N/A  
#WHITMAN MISSIONN/A 80 56 44 CALM 29.95S  

 
 
WAZ030-240410-  
BLUE MOUNTAINS...WASHINGTON  
 
CITY SKY/WX TMP DP RH WIND PRES REMARKS
 
#DIXIE 5SE N/A 67 44 43 S5 30.00F  

 
 
ORZ009-041-WAZ024-240410-  
COLUMBIA RIVER GORGE  
 
CITY SKY/WX TMP DP RH WIND PRES REMARKS
 
HOOD RIVER AP CLEAR 72 52 49 SW5 30.06R  
THE DALLES AP CLEAR 75 52 45 NW15 30.00R  
#ARLINGTON AIRPON/A 76 50 40 W12 29.96S  
#CELILO DOT N/A 78 53 42 W8 N/A  
#LYLE N/A 73 55 53 NW13G26 30.01S  
#MARYHILL N/A 73 50 44 N13 29.86  
#MURDOCK N/A 75 55 50 W14G24 29.94S  
#RUFUS DOT N/A 78 53 42 W16G28 N/A  
#SMITHVILLE N/A 74 53 48 NW12 29.96F  
 

 
 
ORZ510-240410-  
NORTH CENTRAL OREGON  
 
CITY SKY/WX TMP DP RH WIND PRES REMARKS
 
#ANTELOPE N/A 71 46 41 N3 29.83R  
#COW CYN RST AREN/A 71 42 35 NE7 N/A  
#DUFUR N/A 72 50 46 NW3 29.95S  
#DUFUR 9E N/A 67 51 56 NW15 30.06R  
#GRASS VALLEY 1SN/A 70 49 47 N10 30.07S  
#KENT DOT N/A 71 39 31 NW8 N/A  
#MAUPIN SCHOOL N/A 78 52 40 CALM 30.05R  
#SHANIKO 5WSW N/A 68 41 37 NW10 N/A  
#TYGH VALLEY 2NEN/A 76 49 39 N8 29.96R  
#WAPANITIA AIRPON/A 72 49 44 NW7 29.99R  
#WASCO DOT N/A 74 49 41 W10 N/A  
#WASCO 5NE N/A 72 51 48 W7 29.97S  

 
 
ORZ511-240410-  
CENTRAL OREGON  
 
CITY SKY/WX TMP DP RH WIND PRES REMARKS
 
BEND AIRPORT CLEAR 73 39 29 N10 30.09R  
MADRAS AIRPORT CLEAR 72 45 38 NW12 30.08R  
PRINEVILLE AP CLEAR 70 39 32 N9 30.09R  
REDMOND AIRPORT CLEAR 74 42 32 N8 30.08R  
#ASHWOOD SCHOOL N/A 72 40 31 CALM 30.02R  
#BEND 1SW N/A 68 43 40 N3 N/A  
#BEND-AWBREY N/A 72 44 37 CALM 29.96R  
#BEND-KIM LN N/A 73 44 35 NE6 29.90R  
#CULVER N/A 73 47 40 N2 29.78  
#CULVER 8W N/A 75 39 27 CALM 30.07R  
#LAKE BILLY CHINN/A 74 N/A N/A N12 30.11R  
#POWELL BUTTE N/A 71 42 35 NE2 30.05R  
#PRINEVILLE N/A 73 42 33 CALM 30.04S  
#PRINEVILLE 3N N/A 67 47 49 N3 29.97R  
#WARM SPRINGS N/A 77 49 37 CALM 29.83S  
 

 
 
 
ORZ509-240410-  
EAST SLOPES OF OREGON CASCADES  
 
CITY SKY/WX TMP DP RH WIND PRES REMARKS
 
SISTERS AWOS N/A 73 45 37 W9 30.05R  
#BLUE BOX PASS N/A 52 N/A N/A NW6 N/A  
#CAMP SHERMAN N/A 71 44 38 CALM 30.01S  
#LA PINE 4NW N/A 70 45 41 CALM 29.98R  
#LAVA BUTTE DOT N/A 67 36 32 CALM N/A  
#SISTERS ODOT N/A 74 43 33 W7 N/A  
#SISTERS 3N N/A 71 41 34 N2 30.09S  
#SUNRIVER N/A 68 43 40 N1 29.97R  
#TUMALO 3W N/A 71 43 36 NE6 29.85R  
#WANOGA BUTTE D N/A 60 39 46 E8 N/A  
 

 
 
ORZ044-240410-  
LOWER COLUMBIA BASIN...OREGON  
 
CITY SKY/WX TMP DP RH WIND PRES REMARKS
 
HERMISTON CLEAR 83 44 25 S8 29.96S  
#BOARDMAN SCHOOLN/A 81 51 35 SW6 29.93S  
#ECHO 8SW N/A 82 47 29 CALM 29.98S  
#I-84 EX 198 DOTN/A 79 49 35 E2 N/A  
#IONE SCHOOL N/A 79 47 32 W5 29.96S  
#UMATILLA N/A 82 49 32 CALM 29.85F  

 
 
ORZ507-240410-  
NORTHERN FOOTHILLS OF THE BLUES  
 
CITY SKY/WX TMP DP RH WIND PRES REMARKS
 
PENDLETON AIRPT CLEAR 78 40 26 CALM 30.00S  
#ADAMS 3WNW N/A 77 47 35 CALM 29.94S  
#ATHENA N/A 76 47 36 CALM 29.98S  
#CAYUSE N/A 77 47 35 NW1 29.94S  
#HELIX SCHOOL N/A 76 46 34 CALM 29.95S  
#HELIX 3N N/A 73 47 40 NE1 30.03S  
#HOLDMAN 6E N/A 78 48 35 CALM 29.76F  
#M-FREEWATER 5SEN/A 80 55 42 CALM 29.99F  
#PENDLETON DNTN N/A 79 41 26 CALM 29.98S  
#PDT AQUATIC CTRN/A 77 42 29 CALM 29.99S  
#PDT SUNRIDGE N/A 82 47 29 CALM 30.00F  
#PENDLETON 7NW N/A 77 53 43 CALM 32.27S  
#PILOT ROCK N/A 89 46 23 CALM 30.04S  
#TUTUILLA N/A 77 46 33 CALM 30.05S  
#UMAPINE 2E N/A 78 59 52 CALM 29.95F  
 

 
 
ORZ508-240410-  
SOUTHERN FOOTHILLS OF THE BLUES  
 
CITY SKY/WX TMP DP RH WIND PRES REMARKS
 
#AJAX N/A 71 42 35 CALM 30.19S  
#CONDON 5W N/A 69 42 37 N7 30.06S  
#FOSSIL SCHOOL N/A 75 42 31 CALM 29.99F  
#HEPPNER EOC N/A 75 43 32 NW1 29.90S  
#HEPPNER 4NE N/A 72 43 35 NW3 29.97S  
#LEXINGTON 2SE N/A 79 47 32 CALM 29.97S  
#RUGGS 5NE N/A 76 41 28 W2 30.30R  
#RUGGS 2SW N/A 73 41 31 NE2 29.98S  
 

 
 
ORZ502-503-240410-  
BLUE MOUNTAINS  
 
CITY SKY/WX TMP DP RH WIND PRES REMARKS
 
MEACHAM CLEAR 62 44 52 CALM 30.11S  
#BATTLE MTN DOT N/A 62 37 39 N3 N/A  
#GRANITE N/A 60 37 42 N2 29.80S  
#HARDMAN 10S N/A 61 43 51 CALM 30.11S  
#HEPPNER 15SE N/A 62 45 54 CALM 25.62S  
#LADD CYN SMT N/A 67 44 43 N7 N/A  
#LADD CREEK ODOTN/A 63 45 52 CALM N/A  
#N POWDER DOT N/A 66 44 45 NE10 N/A  
#PIKES PEAK N/A 65 43 45 S3 27.99S  
#SUMMERVILLE 5NWN/A 59 50 72 CALM 26.73S  
#TOLLGATE N/A 55 44 66 CALM 30.17S  
#TROY SCHOOL N/A 75 56 52 CALM 29.78S  
#UKIAH N/A 68 45 44 N7 29.89S  

 
 
ORZ505-240410-  
JOHN DAY BASIN  
 
CITY SKY/WX TMP DP RH WIND PRES REMARKS
 
JOHN DAY CLEAR 68 42 39 NW6 30.10R  
#ANTELOPE 9ESE N/A 79 43 28 NE3 N/A  
#DAYVILLE SCHOOLN/A 76 37 24 N3 30.00S  
#MITCHELL 8NW N/A 70 38 31 CALM 30.00R  
#MONUMENT HS N/A 76 39 26 W3 29.98S  
#SPRAY SCHOOL N/A 79 N/A N/A W2 N/A  

 
 
ORZ506-240410-  
OCHOCO AND JOHN DAY HIGHLANDS  
 
CITY SKY/WX TMP DP RH WIND PRES REMARKS
 
#HORSE RIDGE DO N/A 70 37 30 NW12 N/A  
#IZEE 6NW N/A 66 41 40 S3 N/A  
#KEYES SMT DOT N/A 66 36 33 NW6 N/A  
#PAULINA ODOT N/A 70 35 28 N6 N/A  
#PINE MTN OBS N/A 58 39 49 N3 N/A  
#PRAIRIE CITY N/A 69 46 44 CALM 30.21F  
#SENECA N/A 65 N/A N/A N2 N/A  
#SENECA 9NW N/A 60 41 49 CALM 29.95S  

 
 
ORZ049-240410-  
GRANDE RONDE VALLEY  
 
CITY SKY/WX TMP DP RH WIND PRES REMARKS
 
LA GRANDE CLEAR 68 49 51 N7 30.07R  
#COVE SCHOOL N/A 68 49 51 CALM 30.07S  
#COVE 6NW N/A 70 49 47 N3 29.96S  
#ELGIN 3N N/A 71 43 36 CALM 30.03S  
#ELGIN 1E N/A 71 47 42 CALM N/A  
#IMBLER SCHOOL N/A 68 48 49 CALM 30.03R  
#ISLAND CITY 4N N/A 71 55 57 CALM 30.10S  
#LADD CYN DOT N/A 71 48 44 W6 N/A  
#UNION 1S N/A 71 48 44 N3 29.96S  

 
 
ORZ050-240410-  
WALLOWA COUNTY  
 
CITY SKY/WX TMP DP RH WIND PRES REMARKS
 
#ENTERPRISE HS N/A 67 48 50 NW1 29.87R  
#JOSEPH N/A 64 47 54 S1 30.29R  
#JOSEPH 3N N/A 64 44 48 NW1 30.12S  
#JOSEPH 3W N/A 53 49 86 SW2 29.96R  
#LOSTINE N/A 66 49 54 CALM 29.78R  
#LOSTINE 3SE N/A 64 45 50 CALM 30.16R  
#MT HOWARD 8000 N/A 46 39 76 NW5 30.27S  
#PROMISE 1S N/A 66 49 54 CALM 30.06R  
#WALLOWA LAKE N/A 53 46 77 CALM 30.15R  
 

 
 
CLICK HERE TO GO TO PREVIOUS BULLETINS.

The Nexlab OR Page
The Nexlab WA Page Main Text Page